Weather History for Smyrna, TN

Change the Weather History Date:

Tuesday, April 17, 2012

  Actual Average Record
Temperature  
Mean Temperature 56 °F -  
Max Temperature 61 °F 67 °F 86 °F (2013)
Min Temperature 52 °F 49 °F 34 °F (2011)
Degree Days  
Heating Degree Days 8    
Growing Degree Days 6 (Base 50)    
Moisture  
Dew Point 50 °F    
Average Humidity 79    
Maximum Humidity 93    
Minimum Humidity 60    
Precipitation  
Precipitation 0.28 in - - ()
Sea Level Pressure  
Sea Level Pressure 30.26 in    
Wind  
Wind Speed 6 mph (North)    
Max Wind Speed 18 mph    
Max Gust Speed -    
Visibility 9 miles    
Events Rain    
Averages and records for this station are not official NWS values.
T = Trace of Precipitation, MM = Missing Value Source: NWS Daily Summary

Daily Weather History Graph

Daily Weather History Graph

Search for Another Location

Airport:

Trip Planner

Search our weather history database for the weather conditions in past years. The results will help you decide how hot, cold, wet, or windy it might be!

Date:

Astronomy

Apr. 17, 2012 Rise Set
Actual Time 6:09 AM CDT 7:21 PM CDT
Civil Twilight 5:43 AM CDT 7:48 PM CDT
Nautical Twilight 5:11 AM CDT 8:20 PM CDT
Astronomical Twilight 4:38 AM CDT 8:53 PM CDT
Moon 4:00 AM CDT (4/17) 4:19 PM CDT (4/17)
Length of Visible Light 14h 05m
Length of Day
13h 12m
Waning Crescent, 12% of the Moon is Illuminated
Apr 17
Waning Crescent
Apr 21
New
Apr 29
First Quarter
May 5
Full
May 12
Last Quarter

Hourly Weather History & Observations

Time (CDT) Temp. Dew Point Humidity Pressure Visibility Wind Dir Wind Speed Gust Speed Precip Events Conditions
12:56 AM 59.9 °F 55.9 °F 87% 30.22 in 10.0 mi Calm Calm - N/A   Clear
1:56 AM 59.9 °F 50.9 °F 72% 30.21 in 10.0 mi NNE 8.1 mph - N/A   Clear
2:56 AM 57.9 °F 50.9 °F 77% 30.22 in 10.0 mi North 9.2 mph - 0.00 in Rain Light Rain
3:56 AM 57.9 °F 50.0 °F 75% 30.23 in 10.0 mi Calm Calm - 0.00 in   Partly Cloudy
4:56 AM 57.9 °F 48.9 °F 72% 30.24 in 10.0 mi North 5.8 mph - N/A   Clear
5:56 AM 57.9 °F 48.9 °F 72% 30.24 in 10.0 mi Calm Calm - N/A   Partly Cloudy
6:56 AM 56.8 °F 48.9 °F 75% 30.25 in 10.0 mi NNW 6.9 mph - N/A   Partly Cloudy
7:56 AM 57.9 °F 48.9 °F 72% 30.27 in 10.0 mi North 6.9 mph - N/A   Clear
8:56 AM 59.0 °F 47.8 °F 66% 30.28 in 10.0 mi North 8.1 mph - N/A   Clear
9:56 AM 59.9 °F 47.8 °F 64% 30.30 in 10.0 mi NNE 8.1 mph - N/A   Clear
10:56 AM 61.9 °F 47.8 °F 60% 30.31 in 10.0 mi NE 8.1 mph - N/A   Clear
11:56 AM 61.9 °F 47.8 °F 60% 30.29 in 10.0 mi NE 8.1 mph - N/A   Clear
12:56 PM 61.9 °F 48.9 °F 62% 30.29 in 10.0 mi North 5.8 mph - 0.00 in Rain Light Rain
1:56 PM 59.0 °F 54.0 °F 83% 30.30 in 8.0 mi NNW 5.8 mph - 0.00 in Rain Light Rain
2:33 PM 57.2 °F 53.6 °F 88% 30.32 in 5.0 mi NW 13.8 mph - 0.02 in Rain Light Rain
2:56 PM 56.8 °F 52.9 °F 87% 30.30 in 2.5 mi NNW 17.3 mph - 0.05 in Rain Heavy Rain
3:00 PM 55.4 °F 51.8 °F 88% 30.31 in 3.0 mi NNW 18.4 mph - 0.02 in Rain Heavy Rain
3:32 PM 55.4 °F 50.0 °F 82% 30.29 in 5.0 mi NNW 17.3 mph - 0.10 in Rain Heavy Rain
3:56 PM 54.9 °F 50.0 °F 84% 30.27 in 5.0 mi North 13.8 mph - 0.15 in Rain Light Rain
4:03 PM 55.4 °F 50.0 °F 82% 30.28 in 8.0 mi NE 8.1 mph - 0.00 in Rain Light Rain
4:56 PM 55.9 °F 50.9 °F 83% 30.25 in 6.0 mi NNE 5.8 mph - 0.05 in Rain Light Rain
5:56 PM 54.9 °F 52.9 °F 93% 30.24 in 8.0 mi NNW 4.6 mph - 0.02 in Rain Light Rain
6:56 PM 54.9 °F 52.9 °F 93% 30.21 in 10.0 mi East 3.5 mph - 0.01 in Rain Light Rain
7:56 PM 54.9 °F 50.9 °F 86% 30.20 in 10.0 mi NE 11.5 mph - 0.00 in   Clear
8:56 PM 54.0 °F 50.9 °F 89% 30.23 in 10.0 mi North 5.8 mph - 0.00 in Rain Light Rain
9:56 PM 54.0 °F 50.9 °F 89% 30.21 in 10.0 mi NNE 9.2 mph - 0.00 in   Clear
10:56 PM 52.9 °F 48.9 °F 86% 30.22 in 10.0 mi North 5.8 mph - N/A   Clear
11:56 PM 52.9 °F 50.0 °F 90% 30.20 in 10.0 mi North 5.8 mph - N/A   Overcast